| time (UTC) | temp F | wind direction | speed knots | gust knots | rain 1hr in | rain 24hr in | rain mn in | humidity % | barometer mb |
| 20260504000058 | 74 | 11 | 9.6 | 14.8 | 0.00 | 0.00 | 0.00 | 18 | 1007.4 |
| 20260503234556 | 74 | 325 | 9.6 | 15.6 | 0.00 | 0.00 | 0.00 | 18 | 1007.4 |
| 20260503233049 | 73 | 316 | 7.8 | 17.4 | 0.00 | 0.00 | 0.00 | 18 | 1007.5 |
| 20260503231557 | 73 | 324 | 11.3 | 16.5 | 0.00 | 0.00 | 0.00 | 18 | 1007.7 |
| 20260503230058 | 74 | 330 | 11.3 | 19.1 | 0.00 | 0.00 | 0.00 | 18 | 1007.8 |
| 20260503224553 | 74 | 311 | 8.7 | 18.2 | 0.00 | 0.00 | 0.00 | 18 | 1007.8 |
| 20260503223057 | 74 | 352 | 12.2 | 17.4 | 0.00 | 0.00 | 0.00 | 17 | 1008.0 |
| 20260503221559 | 74 | 342 | 9.6 | 17.4 | 0.00 | 0.00 | 0.00 | 18 | 1008.2 |
| 20260503220055 | 73 | 292 | 10.4 | 17.4 | 0.00 | 0.00 | 0.00 | 18 | 1008.5 |
| 20260503214604 | 73 | 257 | 6.1 | 13.0 | 0.00 | 0.00 | 0.00 | 19 | 1008.6 |
| 20260503213053 | 72 | 271 | 9.6 | 20.0 | 0.00 | 0.00 | 0.00 | 18 | 1008.8 |
| 20260503211556 | 72 | 334 | 12.2 | 19.1 | 0.00 | 0.00 | 0.00 | 18 | 1009.2 |
| 20260503210056 | 73 | 288 | 7.8 | 15.6 | 0.00 | 0.00 | 0.00 | 19 | 1009.4 |
| 20260503204603 | 72 | 328 | 7.8 | 14.8 | 0.00 | 0.00 | 0.00 | 20 | 1009.4 |
| 20260503203100 | 71 | 306 | 10.4 | 16.5 | 0.00 | 0.00 | 0.00 | 19 | 1009.9 |
| 20260503201558 | 71 | 322 | 11.3 | 16.5 | 0.00 | 0.00 | 0.00 | 20 | 1010.1 |
| 20260503200059 | 70 | 312 | 6.1 | 18.2 | 0.00 | 0.00 | 0.00 | 21 | 1010.3 |
| 20260503194559 | 71 | 352 | 10.4 | 22.6 | 0.00 | 0.00 | 0.00 | 21 | 1010.5 |
| 20260503193111 | 70 | 323 | 9.6 | 21.7 | 0.00 | 0.00 | 0.00 | 20 | 1010.7 |
| 20260503191553 | 70 | 338 | 9.6 | 15.6 | 0.00 | 0.00 | 0.00 | 20 | 1010.8 |
| 20260503190105 | 70 | 277 | 9.6 | 15.6 | 0.00 | 0.00 | 0.00 | 21 | 1010.9 |
| 20260503184548 | 70 | 277 | 9.6 | 16.5 | 0.00 | 0.00 | 0.00 | 20 | 1011.1 |
| 20260503183059 | 69 | 335 | 7.0 | 14.8 | 0.00 | 0.00 | 0.00 | 21 | 1011.2 |
| 20260503181553 | 70 | 273 | 9.6 | 14.8 | 0.00 | 0.00 | 0.00 | 20 | 1011.5 |
| 20260503180057 | 69 | 292 | 8.7 | 16.5 | 0.00 | 0.00 | 0.00 | 21 | 1011.6 |
| 20260503174551 | 68 | 257 | 2.6 | 14.8 | 0.00 | 0.00 | 0.00 | 24 | 1011.8 |
| 20260503173111 | 68 | 311 | 7.0 | 19.1 | 0.00 | 0.00 | 0.00 | 26 | 1012.0 |
| 20260503171553 | 67 | 289 | 6.1 | 10.4 | 0.00 | 0.00 | 0.00 | 27 | 1012.1 |
| 20260503150111 | 53 | 291 | 9.6 | 12.2 | 0.00 | 0.00 | 0.00 | 66 | 1012.9 |
| 20260503140119 | 48 | 290 | 4.3 | 7.8 | 0.00 | 0.00 | 0.00 | 78 | 1013.3 |
| 20260503110117 | 41 | 0 | 0.0 | 0.0 | 0.00 | 0.00 | 0.00 | 84 | 1013.7 |
| 20260503100105 | 40 | 0 | 0.0 | 0.0 | 0.00 | 0.00 | 0.00 | 85 | 1014.2 |
| 20260503081620 | 44 | 0 | 0.0 | 1.7 | 0.00 | 0.00 | 0.00 | 80 | 1014.9 |
| 20260503080103 | 44 | 0 | 0.0 | 1.7 | 0.00 | 0.00 | 0.00 | 80 | 1014.8 |
| 20260503071607 | 42 | 0 | 0.9 | 4.3 | 0.00 | 0.00 | 0.00 | 83 | 1014.9 |
| 20260503070104 | 42 | 0 | 0.0 | 0.0 | 0.00 | 0.00 | 0.00 | 82 | 1014.9 |
| 20260503060106 | 45 | 208 | 0.0 | 1.7 | 0.00 | 0.00 | 0.00 | 78 | 1014.9 |
| 20260503054557 | 46 | 0 | 0.0 | 1.7 | 0.00 | 0.00 | 0.00 | 75 | 1014.9 |
| 20260503053056 | 46 | 208 | 0.9 | 2.6 | 0.00 | 0.00 | 0.00 | 77 | 1015.2 |
| 20260503051600 | 47 | 208 | 0.9 | 3.5 | 0.00 | 0.00 | 0.00 | 72 | 1015.2 |
| 20260503050055 | 49 | 208 | 0.9 | 3.5 | 0.00 | 0.00 | 0.00 | 73 | 1015.3 |
| 20260503044556 | 49 | 0 | 0.0 | 1.7 | 0.00 | 0.00 | 0.00 | 73 | 1015.3 |
| 20260503043054 | 51 | 0 | 0.0 | 1.7 | 0.00 | 0.00 | 0.00 | 71 | 1015.5 |
| 20260503041555 | 52 | 0 | 0.0 | 0.0 | 0.00 | 0.00 | 0.00 | 69 | 1015.5 |
| 20260503040056 | 52 | 0 | 0.0 | 6.1 | 0.00 | 0.00 | 0.00 | 69 | 1015.7 |
| 20260503034556 | 52 | 208 | 6.1 | 12.2 | 0.00 | 0.00 | 0.00 | 71 | 1015.9 |
| 20260503033106 | 56 | 281 | 8.7 | 24.3 | 0.00 | 0.00 | 0.00 | 60 | 1016.3 |
| 20260503031557 | 58 | 343 | 0.0 | 5.2 | 0.00 | 0.00 | 0.00 | 43 | 1015.8 |
| 20260503030049 | 57 | 0 | 0.0 | 0.0 | 0.00 | 0.00 | 0.00 | 40 | 1015.1 |
| 20260503024557 | 59 | 0 | 0.0 | 0.0 | 0.00 | 0.00 | 0.00 | 40 | 1015.1 |
| 20260503023050 | 60 | 0 | 0.0 | 0.0 | 0.00 | 0.00 | 0.00 | 39 | 1015.0 |
| 20260503021559 | 62 | 0 | 0.0 | 0.9 | 0.00 | 0.00 | 0.00 | 36 | 1014.8 |
| 20260503020056 | 63 | 0 | 0.0 | 0.0 | 0.00 | 0.00 | 0.00 | 35 | 1014.9 |
| 20260503014620 | 64 | 0 | 0.0 | 3.5 | 0.00 | 0.00 | 0.00 | 34 | 1014.8 |
| 20260503013051 | 66 | 0 | 0.0 | 0.9 | 0.00 | 0.00 | 0.00 | 32 | 1014.8 |
| 20260503011601 | 67 | 0 | 0.0 | 0.0 | 0.00 | 0.00 | 0.00 | 33 | 1014.7 |
| 20260503010055 | 66 | 0 | 0.0 | 5.2 | 0.00 | 0.00 | 0.00 | 32 | 1015.0 |
| 20260503004611 | 67 | 324 | 0.0 | 5.2 | 0.00 | 0.00 | 0.00 | 33 | 1015.2 |
| 20260503003049 | 65 | 0 | 0.9 | 3.5 | 0.00 | 0.00 | 0.00 | 35 | 1015.2 |
| 20260503001556 | 65 | 335 | 2.6 | 7.0 | 0.00 | 0.00 | 0.00 | 34 | 1015.5 |